TimeCDT,TemperatureF,Dew PointF,Humidity,Sea Level PressureIn,VisibilityMPH,Wind Direction,Wind SpeedMPH,Gust SpeedMPH,PrecipitationIn,Events,Conditions,WindDirDegrees,DateUTC
12:15 AM,48.6,43.2,82,30.07,10.0,Calm,Calm,-,N/A,,Clear,0,2013-09-29 05:15:00
12:35 AM,48.0,43.5,84,30.06,10.0,SW,3.5,-,N/A,,Clear,220,2013-09-29 05:35:00
12:55 AM,47.7,42.6,83,30.06,10.0,SSW,4.6,-,N/A,,Clear,210,2013-09-29 05:55:00
1:15 AM,47.3,43.5,87,30.06,10.0,SW,5.8,-,N/A,,Clear,220,2013-09-29 06:15:00
1:35 AM,47.3,43.2,86,30.06,10.0,SSW,3.5,-,N/A,,Clear,200,2013-09-29 06:35:00
1:55 AM,45.5,42.3,88,30.06,10.0,SSW,4.6,-,N/A,,Clear,200,2013-09-29 06:55:00
2:15 AM,45.5,42.6,90,30.06,10.0,SSW,4.6,-,N/A,,Clear,210,2013-09-29 07:15:00
2:35 AM,44.4,41.4,89,30.06,10.0,Calm,Calm,-,N/A,,Clear,0,2013-09-29 07:35:00
2:55 AM,43.9,40.8,89,30.06,10.0,Calm,Calm,-,N/A,,Clear,0,2013-09-29 07:55:00
3:15 AM,43.9,41.0,90,30.05,10.0,South,3.5,-,N/A,,Clear,180,2013-09-29 08:15:00
3:35 AM,44.1,41.0,89,30.05,10.0,South,3.5,-,N/A,,Clear,180,2013-09-29 08:35:00
3:55 AM,43.0,40.1,90,30.04,10.0,South,3.5,-,N/A,,Clear,170,2013-09-29 08:55:00
4:15 AM,43.2,40.3,90,30.04,10.0,South,4.6,-,N/A,,Clear,170,2013-09-29 09:15:00
4:35 AM,44.6,40.6,86,30.04,10.0,Calm,Calm,-,N/A,,Clear,0,2013-09-29 09:35:00
4:55 AM,45.0,40.6,85,30.04,10.0,SSW,3.5,-,N/A,,Clear,210,2013-09-29 09:55:00
5:15 AM,46.0,40.3,80,30.04,10.0,Calm,Calm,-,N/A,,Clear,0,2013-09-29 10:15:00
5:35 AM,44.6,40.1,84,30.04,10.0,South,3.5,-,N/A,,Clear,170,2013-09-29 10:35:00
5:55 AM,43.7,40.1,87,30.04,10.0,South,3.5,-,N/A,,Clear,170,2013-09-29 10:55:00
6:15 AM,43.9,40.3,87,30.05,10.0,South,3.5,-,N/A,,Clear,180,2013-09-29 11:15:00
6:35 AM,45.3,40.1,82,30.05,10.0,South,3.5,-,N/A,,Clear,170,2013-09-29 11:35:00
6:55 AM,43.9,40.1,87,30.05,10.0,South,3.5,-,N/A,,Clear,170,2013-09-29 11:55:00
7:15 AM,43.9,39.6,85,30.05,10.0,SSE,4.6,-,N/A,,Clear,160,2013-09-29 12:15:00
7:35 AM,42.8,39.7,89,30.05,10.0,SE,4.6,-,N/A,,Clear,140,2013-09-29 12:35:00
7:55 AM,43.7,40.5,88,30.05,10.0,SSE,3.5,-,N/A,,Clear,160,2013-09-29 12:55:00
8:15 AM,46.0,42.6,88,30.04,10.0,Calm,Calm,-,N/A,,Clear,0,2013-09-29 13:15:00
8:35 AM,49.3,44.8,84,30.05,10.0,South,4.6,-,N/A,,Clear,170,2013-09-29 13:35:00
8:55 AM,52.3,45.5,78,30.04,10.0,South,4.6,-,N/A,,Clear,190,2013-09-29 13:55:00
9:15 AM,55.6,45.7,69,30.04,10.0,South,5.8,-,N/A,,Clear,190,2013-09-29 14:15:00
9:35 AM,59.2,43.9,57,30.04,10.0,SSW,9.2,-,N/A,,Clear,200,2013-09-29 14:35:00
9:55 AM,61.9,44.2,52,30.04,10.0,SSW,9.2,-,N/A,,Clear,210,2013-09-29 14:55:00
10:15 AM,64.8,44.6,48,30.04,10.0,SSW,10.4,-,N/A,,Clear,200,2013-09-29 15:15:00
10:35 AM,68.2,43.5,41,30.04,10.0,SSW,10.4,-,N/A,,Clear,200,2013-09-29 15:35:00
10:55 AM,70.0,41.9,36,30.03,10.0,SW,13.8,19.6,N/A,,Clear,220,2013-09-29 15:55:00
11:15 AM,72.0,42.4,34,30.02,10.0,SW,13.8,-,N/A,,Clear,220,2013-09-29 16:15:00
11:35 AM,73.0,41.0,31,30.02,10.0,SSW,13.8,-,N/A,,Clear,200,2013-09-29 16:35:00
11:55 AM,75.0,39.9,28,30.01,10.0,SSW,12.7,20.7,N/A,,Clear,210,2013-09-29 16:55:00
12:15 PM,75.2,39.0,27,30.00,10.0,SSW,16.1,23.0,N/A,,Clear,210,2013-09-29 17:15:00
12:35 PM,76.1,39.7,27,30.00,10.0,South,17.3,20.7,N/A,,Clear,190,2013-09-29 17:35:00
12:55 PM,76.5,39.4,26,29.99,10.0,SSW,16.1,23.0,N/A,,Clear,200,2013-09-29 17:55:00
1:15 PM,77.2,39.2,26,29.98,10.0,SSW,16.1,24.2,N/A,,Clear,200,2013-09-29 18:15:00
1:35 PM,77.9,38.8,25,29.97,10.0,SSW,11.5,-,N/A,,Clear,210,2013-09-29 18:35:00
1:55 PM,78.4,39.0,24,29.95,10.0,SW,15.0,24.2,N/A,,Clear,220,2013-09-29 18:55:00
2:15 PM,79.0,39.0,24,29.94,10.0,SSW,16.1,23.0,N/A,,Clear,200,2013-09-29 19:15:00
2:35 PM,79.0,39.9,25,29.93,10.0,South,19.6,25.3,N/A,,Clear,190,2013-09-29 19:35:00
2:55 PM,79.0,38.8,24,29.92,10.0,SSW,16.1,24.2,N/A,,Clear,210,2013-09-29 19:55:00
3:15 PM,79.5,39.4,24,29.91,10.0,SW,16.1,23.0,N/A,,Clear,220,2013-09-29 20:15:00
3:35 PM,79.7,39.2,23,29.91,10.0,SSW,16.1,21.9,N/A,,Clear,200,2013-09-29 20:35:00
3:55 PM,79.2,39.6,24,29.91,10.0,South,17.3,24.2,N/A,,Clear,180,2013-09-29 20:55:00
4:15 PM,79.3,39.2,24,29.90,10.0,South,17.3,23.0,N/A,,Clear,170,2013-09-29 21:15:00
4:35 PM,77.9,38.5,24,29.90,10.0,SSW,15.0,20.7,N/A,,Clear,200,2013-09-29 21:35:00
4:55 PM,78.6,38.7,24,29.89,10.0,South,18.4,23.0,N/A,,Clear,180,2013-09-29 21:55:00
5:15 PM,77.9,38.7,24,29.88,10.0,South,19.6,23.0,N/A,,Clear,180,2013-09-29 22:15:00
5:35 PM,76.8,39.4,26,29.88,7.0,South,15.0,25.3,N/A,,Scattered Clouds,180,2013-09-29 22:35:00
5:55 PM,75.6,38.8,27,29.88,7.0,South,19.6,24.2,N/A,,Scattered Clouds,180,2013-09-29 22:55:00
6:15 PM,74.5,39.6,28,29.87,10.0,South,13.8,18.4,N/A,,Clear,190,2013-09-29 23:15:00
6:35 PM,73.0,41.0,31,29.87,10.0,South,10.4,-,N/A,,Clear,170,2013-09-29 23:35:00
6:55 PM,70.2,41.9,36,29.87,10.0,South,10.4,-,N/A,,Clear,170,2013-09-29 23:55:00
7:15 PM,66.6,43.5,43,29.88,10.0,South,9.2,-,N/A,,Clear,170,2013-09-30 00:15:00
7:35 PM,62.8,44.6,51,29.88,10.0,South,9.2,-,N/A,,Clear,170,2013-09-30 00:35:00
7:55 PM,61.0,45.0,56,29.88,10.0,SSE,8.1,-,N/A,,Clear,160,2013-09-30 00:55:00
8:15 PM,59.0,45.1,60,29.88,10.0,South,9.2,-,N/A,,Clear,170,2013-09-30 01:15:00
8:35 PM,58.6,45.1,61,29.88,10.0,SSE,11.5,-,N/A,,Clear,160,2013-09-30 01:35:00
8:55 PM,59.7,44.6,57,29.89,10.0,South,8.1,-,N/A,,Clear,170,2013-09-30 01:55:00
9:15 PM,57.9,44.6,61,29.89,10.0,SSE,8.1,-,N/A,,Clear,160,2013-09-30 02:15:00
9:35 PM,56.5,44.8,65,29.89,10.0,SSE,8.1,-,N/A,,Clear,160,2013-09-30 02:35:00
9:55 PM,55.0,45.1,69,29.89,10.0,SSE,9.2,-,N/A,,Clear,160,2013-09-30 02:55:00
10:15 PM,54.9,45.3,70,29.91,10.0,South,5.8,-,N/A,,Clear,180,2013-09-30 03:15:00
10:35 PM,54.7,45.7,72,29.90,10.0,South,9.2,-,N/A,,Clear,170,2013-09-30 03:35:00
10:55 PM,55.2,45.9,71,29.90,10.0,SSE,10.4,-,N/A,,Clear,160,2013-09-30 03:55:00
11:15 PM,56.3,45.9,68,29.89,10.0,SSE,9.2,-,N/A,,Clear,160,2013-09-30 04:15:00
11:35 PM,55.4,45.7,70,29.89,10.0,SSE,8.1,-,N/A,,Clear,160,2013-09-30 04:35:00
11:55 PM,53.4,45.5,75,29.90,10.0,SSE,6.9,-,N/A,,Clear,160,2013-09-30 04:55:00